Highgate, VT

6:51 PM EDT on June 27, 2017 (GMT -0400)
Franklin County State

Weather History for KFSO - May, 2014

Change the Weather History Date:

Tuesday, May 6, 2014

  Actual Average (KPBG) Record (KPBG)
Temperature  
Mean Temperature 52 °F -  
Max Temperature 61 °F 61 °F 81 °F (1955)
Min Temperature 44 °F 40 °F 28 °F (1992)
Degree Days  
Heating Degree Days 12    
Growing Degree Days 2 (Base 50)    
Moisture  
Dew Point 32 °F    
Average Humidity 45    
Maximum Humidity 81    
Minimum Humidity 27    
Precipitation  
Precipitation 0.00 in - - ()
Sea Level Pressure  
Sea Level Pressure 29.96 in    
Wind  
Wind Speed 4 mph (NW)    
Max Wind Speed 12 mph    
Max Gust Speed 20 mph    
Visibility 10 miles    
Events      
Averages and records for this station are not official NWS values.
T = Trace of Precipitation, MM = Missing Value Source: NWS Daily Summary

Daily Weather History Graph

Daily Weather History Graph

Search for Another Location

Airport or City:

Trip Planner

Search our weather history database for the weather conditions in past years. The results will help you decide how hot, cold, wet, or windy it might be!

Date:

Astronomy

May. 06, 2014 Rise Set
Actual Time 5:34 AM EDT 8:03 PM EDT
Civil Twilight 5:01 AM EDT 8:37 PM EDT
Nautical Twilight 4:20 AM EDT 9:18 PM EDT
Astronomical Twilight 3:34 AM EDT 10:05 PM EDT
Moon 11:51 AM EDT (5/6) 1:19 AM EDT (5/6)
Length of Visible Light 15h 35m
Length of Day
14h 29m
Waxing Crescent, 46% of the Moon is Illuminated
May 6
Waxing Crescent
May 6
First Quarter
May 14
Full
May 21
Last Quarter
May 28
New

Hourly Weather History & Observations

Time (EDT) Temp. Windchill Dew Point Humidity Pressure Visibility Wind Dir Wind Speed Gust Speed Precip Events Conditions
12:15 AM 50.7 °F - 43.3 °F 76% 29.89 in 10.0 mi Calm Calm - N/A   Overcast
12:35 AM 48.4 °F - 42.3 °F 79% 29.89 in 10.0 mi Calm Calm - N/A   Overcast
1:15 AM 47.1 °F - 41.7 °F 81% 29.89 in 10.0 mi Calm Calm - N/A   Overcast
1:35 AM 45.3 °F - 39.6 °F 80% 29.89 in 10.0 mi Calm Calm - N/A   Mostly Cloudy
1:55 AM 48.4 °F - 40.1 °F 73% 29.88 in 10.0 mi Calm Calm - N/A   Mostly Cloudy
2:15 AM 46.0 °F - 37.2 °F 71% 29.88 in 10.0 mi Calm Calm - N/A   Scattered Clouds
2:35 AM 44.6 °F - 37.2 °F 75% 29.87 in 10.0 mi Calm Calm - N/A   Scattered Clouds
2:55 AM 44.8 °F 43.3 °F 36.3 °F 72% 29.88 in 10.0 mi North 3.5 mph - N/A   Scattered Clouds
3:15 AM 44.6 °F 42.2 °F 35.6 °F 71% 29.87 in 10.0 mi North 4.6 mph - N/A   Scattered Clouds
7:55 AM 48.4 °F - 34.9 °F 60% 29.93 in 10.0 mi NNW 5.8 mph - N/A   Mostly Cloudy
8:15 AM 50.9 °F - 36.0 °F 57% 29.93 in 10.0 mi North 9.2 mph - N/A   Mostly Cloudy
8:35 AM 50.9 °F - 34.9 °F 54% 29.93 in 10.0 mi NNW 6.9 mph - N/A   Scattered Clouds
8:55 AM 50.9 °F - 33.3 °F 51% 29.93 in 10.0 mi NNW 6.9 mph - N/A   Scattered Clouds
9:15 AM 50.9 °F - 32.2 °F 49% 29.94 in 10.0 mi NW 6.9 mph - N/A   Mostly Cloudy
9:55 AM 50.9 °F - 33.1 °F 51% 29.94 in 10.0 mi WNW 5.8 mph - N/A   Scattered Clouds
10:15 AM 50.9 °F - 32.2 °F 49% 29.95 in 10.0 mi NW 6.9 mph - N/A   Mostly Cloudy
10:35 AM 50.9 °F - 31.8 °F 48% 29.95 in 10.0 mi NW 9.2 mph - N/A   Overcast
10:55 AM 52.2 °F - 32.7 °F 48% 29.95 in 10.0 mi NW 8.1 mph - N/A   Overcast
11:15 AM 54.0 °F - 34.0 °F 47% 29.95 in 10.0 mi NW 8.1 mph - N/A   Mostly Cloudy
11:35 AM 55.9 °F - 32.2 °F 41% 29.95 in 10.0 mi NW 6.9 mph - N/A   Scattered Clouds
11:55 AM 55.9 °F - 32.0 °F 40% 29.95 in 10.0 mi NNW 5.8 mph - N/A   Mostly Cloudy
12:15 PM 55.9 °F - 30.6 °F 38% 29.95 in 10.0 mi NW 8.1 mph 16.1 mph N/A   Mostly Cloudy
12:35 PM 55.9 °F - 31.3 °F 39% 29.94 in 10.0 mi North 8.1 mph - N/A   Mostly Cloudy
12:55 PM 56.1 °F - 30.7 °F 38% 29.94 in 10.0 mi NNW 6.9 mph - N/A   Mostly Cloudy
1:15 PM 58.1 °F - 30.9 °F 36% 29.94 in 10.0 mi NW 9.2 mph 17.3 mph N/A   Mostly Cloudy
1:35 PM 58.5 °F - 30.9 °F 35% 29.95 in 10.0 mi West 9.2 mph - N/A   Mostly Cloudy
1:55 PM 58.3 °F - 31.3 °F 36% 29.95 in 10.0 mi NNW 10.4 mph 18.4 mph N/A   Mostly Cloudy
2:15 PM 58.6 °F - 29.1 °F 33% 29.95 in 10.0 mi WNW 11.5 mph 19.6 mph N/A   Scattered Clouds
2:35 PM 58.6 °F - 28.0 °F 31% 29.95 in 10.0 mi NW 11.5 mph 16.1 mph N/A   Scattered Clouds
2:55 PM 59.7 °F - 28.8 °F 31% 29.95 in 10.0 mi NW 9.2 mph 17.3 mph N/A   Scattered Clouds
3:15 PM 60.1 °F - 28.0 °F 30% 29.95 in 10.0 mi NW 10.4 mph 17.3 mph N/A   Scattered Clouds
3:35 PM 59.7 °F - 27.9 °F 30% 29.95 in 10.0 mi NNW 10.4 mph - N/A   Scattered Clouds
4:15 PM 60.6 °F - 27.0 °F 28% 29.96 in 10.0 mi NW 9.2 mph 19.6 mph N/A   Clear
4:35 PM 61.0 °F - 27.1 °F 28% 29.96 in 10.0 mi NW 8.1 mph - N/A   Clear
4:55 PM 61.0 °F - 27.5 °F 28% 29.97 in 10.0 mi NNW 8.1 mph - N/A   Clear
5:15 PM 61.0 °F - 27.7 °F 28% 29.97 in 10.0 mi NW 9.2 mph - N/A   Scattered Clouds
5:35 PM 61.0 °F - 27.0 °F 27% 29.97 in 10.0 mi NW 6.9 mph - N/A   Scattered Clouds
5:55 PM 60.4 °F - 27.3 °F 28% 29.97 in 10.0 mi NNW 6.9 mph - N/A   Clear
6:15 PM 59.2 °F - 25.7 °F 28% 29.97 in 10.0 mi West 6.9 mph - N/A   Clear
6:35 PM 58.5 °F - 25.2 °F 28% 29.98 in 10.0 mi WNW 4.6 mph - N/A   Clear
6:55 PM 58.5 °F - 26.1 °F 29% 29.99 in 10.0 mi WNW 3.5 mph - N/A   Clear
7:15 PM 58.5 °F - 27.1 °F 30% 30.00 in 10.0 mi West 4.6 mph - N/A   Clear
7:35 PM 55.9 °F - 25.9 °F 31% 30.01 in 10.0 mi NW 3.5 mph - N/A   Scattered Clouds
7:55 PM 55.9 °F - 26.6 °F 32% 30.01 in 10.0 mi WNW 5.8 mph - N/A   Mostly Cloudy
8:15 PM 55.9 °F - 27.3 °F 33% 30.02 in 10.0 mi Calm Calm - N/A   Overcast
8:35 PM 55.9 °F - 29.3 °F 36% 30.03 in 10.0 mi Calm Calm - N/A   Overcast
8:55 PM 53.6 °F - 28.6 °F 38% 30.03 in 10.0 mi Calm Calm - N/A   Mostly Cloudy
9:15 PM 52.9 °F - 29.5 °F 41% 30.04 in 10.0 mi Calm Calm - N/A   Mostly Cloudy
9:35 PM 50.9 °F - 31.8 °F 48% 30.05 in 10.0 mi Calm Calm - N/A   Overcast
9:55 PM 53.6 °F - 29.8 °F 40% 30.05 in 10.0 mi West 3.5 mph - N/A   Overcast
10:15 PM 53.6 °F - 28.8 °F 39% 30.06 in 10.0 mi West 3.5 mph - N/A   Overcast
10:35 PM 53.6 °F - 29.1 °F 39% 30.07 in 10.0 mi Calm Calm - N/A   Overcast
10:55 PM 53.6 °F - 30.9 °F 42% 30.07 in 10.0 mi NW 3.5 mph - N/A   Overcast
11:15 PM 53.2 °F - 34.3 °F 49% 30.07 in 10.0 mi North 9.2 mph - N/A   Overcast
11:55 PM 50.9 °F - 34.0 °F 52% 30.08 in 10.0 mi North 9.2 mph - N/A   Scattered Clouds